User: anonymous   Login
Location: Bonn
(50.7330°N, 7.1000°E)
Time: 14:45:45
(UTC+02:00)
Language:

Cosmos 1933 Rocket - Orbit

View from above orbital plane
View from above orbital plane
View from above satellite
View from above satellite

Ground track
Ground track

The orbit data is extracted from the following two-line orbital elements,

1 18959U 88020B   14296.82926453  .00000840  00000-0  10040-3 0  3894
2 18959 082.5365 094.5412 0018505 088.4917 028.1366 14.82892721437198
Epoch (UTC): 23 October 2014 19:54:08
Eccentricity: 0.0018505
inclination: 82.5365°
perigee height: 607 km
apogee height: 633 km
right ascension of ascending node: 94.5412°
argument of perigee: 88.4917°
revolutions per day: 14.82892721
mean anomaly at epoch: 28.1366°
orbit number at epoch: 43719

The dashed part of the orbit path shows where the satellite is in the earth's shadow,  

DLR